Date,TemperatureHighF,TemperatureAvgF,TemperatureLowF,DewpointHighF,DewpointAvgF,DewpointLowF,HumidityHigh,HumidityAvg,HumidityLow,PressureMaxIn,PressureMinIn,WindSpeedMaxMPH,WindSpeedAvgMPH,GustSpeedMaxMPH,PrecipitationSumIn
2012-1-2,63.5,48.7,39.4,42.8,34.5,30.3,77,59,34,29.23,29.18,3,0,3,0.00
2012-1-3,64.4,47.8,36.9,34.7,29.5,24.5,69,50,32,29.29,29.21,4,0,4,0.00
2012-1-4,65.5,48.9,37.8,35.6,32.1,28.1,72,54,33,29.32,29.23,0,0,3,0.00
2012-1-5,65.8,48.4,37.8,33.9,29.2,22.3,73,49,27,29.23,29.09,3,0,4,0.00
2012-1-6,58.1,44.6,36.9,35.2,32.0,29.4,78,63,39,29.12,29.06,0,0,3,0.00
2012-1-7,64.9,45.9,32.2,36.7,25.6,15.0,77,50,24,29.15,29.06,4,0,6,0.00
2012-1-8,61.3,45.2,33.1,34.7,26.3,14.5,71,48,36,29.21,29.12,4,0,5,0.00
2012-1-9,64.6,46.9,37.2,33.9,30.6,27.5,72,55,30,29.21,29.12,5,0,6,0.00
2012-1-10,64.0,47.4,37.0,32.6,27.1,23.7,66,47,28,29.15,29.03,3,0,4,0.00
2012-1-11,63.7,47.3,35.4,31.2,25.5,20.2,60,44,27,29.12,29.00,4,0,4,0.00
2012-1-12,62.2,46.5,36.7,31.5,26.3,21.4,61,47,29,29.12,29.00,3,0,4,0.00
2012-1-13,64.2,48.1,38.8,29.3,23.9,17.7,56,40,24,29.21,29.12,3,0,4,0.00
2012-1-14,66.9,48.1,38.5,29.1,24.1,20.0,53,41,23,29.15,29.03,3,0,3,0.00
2012-1-15,57.6,44.8,36.1,34.9,24.7,15.6,62,46,35,29.06,28.88,6,1,6,0.00
2012-1-16,47.8,33.2,22.3,30.4,16.8,6.0,81,54,29,29.26,29.06,4,0,5,0.00
2012-1-17,51.6,36.1,24.4,19.9,14.2,9.6,57,42,26,29.35,29.23,6,0,6,0.00
2012-1-18,54.0,41.8,33.1,21.7,16.8,11.9,50,37,27,29.35,29.21,4,0,5,0.00
2012-1-19,49.5,42.2,34.9,43.5,25.8,15.9,93,55,31,29.21,29.00,6,1,10,0.24
2012-1-20,55.0,50.7,43.7,54.5,49.8,42.1,98,96,93,29.03,28.67,8,1,10,2.32
2012-1-21,54.1,46.8,37.4,53.6,42.5,33.2,98,86,48,29.09,28.61,6,1,10,0.31
2012-1-22,48.7,43.1,37.2,43.2,38.4,35.0,95,84,65,29.12,28.82,8,1,11,0.31
2012-1-23,53.1,46.8,38.3,50.8,44.8,37.2,96,93,86,29.09,28.64,9,1,10,1.30
2012-1-24,52.5,45.0,38.5,48.8,42.0,37.4,98,90,72,31.01,29.09,3,0,3,0.00
2012-1-25,60.1,48.0,39.2,52.5,42.7,38.7,98,83,55,31.01,29.26,4,0,4,0.00
2012-1-26,55.9,51.3,44.1,53.1,48.7,41.9,97,91,76,31.01,29.18,5,0,5,0.00
2012-1-27,61.9,47.0,36.9,48.5,37.8,31.0,98,75,35,29.23,29.12,3,0,4,0.00
2012-1-28,60.6,45.3,33.4,40.7,33.4,24.4,88,65,40,29.29,29.21,3,0,4,0.00
2012-1-29,66.6,49.9,40.1,39.3,34.6,28.2,88,59,28,29.23,29.09,6,0,6,0.00
2012-1-30,60.6,49.5,40.6,38.7,34.2,30.8,80,57,36,29.09,28.94,4,0,4,0.00
2012-1-31,59.7,48.1,37.6,42.6,37.5,34.0,88,69,41,29.12,29.00,6,0,6,0.00
2012-2-1,55.9,47.1,38.7,50.2,42.6,36.3,92,85,66,29.21,29.09,4,0,6,0.08
2012-2-2,62.6,44.6,36.0,39.5,34.5,32.1,96,72,34,29.18,28.91,4,0,5,0.00
2012-2-3,61.0,45.1,34.5,34.2,30.4,23.9,90,60,34,29.03,28.97,4,0,5,0.00
2012-2-4,65.1,48.3,37.6,34.1,28.7,23.8,70,49,27,29.09,29.00,4,0,4,0.00
2012-2-5,64.8,48.6,38.7,33.9,28.6,22.8,63,48,28,29.06,28.97,4,0,5,0.00
2012-2-6,67.1,50.5,39.9,32.8,27.9,22.0,61,43,24,31.01,28.79,6,0,6,0.00
2012-2-7,58.8,51.5,46.8,46.9,39.8,28.7,94,67,40,31.01,28.91,5,0,8,0.00
2012-2-8,64.4,50.8,41.7,51.4,42.2,38.4,97,76,43,31.01,29.09,4,0,4,0.00
2012-2-9,68.7,52.7,43.0,44.4,41.9,39.4,92,70,36,29.24,29.12,4,0,6,0.00
2012-2-10,63.1,53.0,42.4,48.8,42.7,38.3,89,70,43,29.15,29.03,3,0,7,0.00
2012-2-11,56.7,49.8,42.1,47.7,42.8,36.3,89,78,54,29.03,28.94,2,0,4,0.04
2012-2-12,58.8,48.8,39.4,46.0,41.2,36.6,94,77,53,29.00,28.91,4,0,9,0.20
2012-2-13,51.1,43.2,37.0,43.1,39.8,34.7,97,88,61,28.94,28.82,4,0,6,0.51
2012-2-14,55.8,45.0,36.1,45.0,37.8,34.1,98,78,48,29.03,28.91,6,0,8,0.00
2012-2-15,59.4,44.1,30.9,41.5,28.9,21.2,93,60,27,29.12,28.91,5,0,6,0.00
2012-2-16,64.4,46.3,33.1,31.0,25.8,20.2,70,48,24,29.18,29.12,4,0,6,0.00
2012-2-17,62.2,48.4,37.8,35.5,30.2,24.2,73,51,32,29.21,29.12,5,0,5,0.00
2012-2-18,56.3,45.7,35.4,45.1,37.6,32.4,91,74,57,29.15,29.00,5,0,10,0.00
2012-2-19,56.3,42.9,34.0,37.2,29.7,19.2,96,64,31,29.06,28.97,4,0,5,0.00
2012-2-20,55.9,46.9,37.9,35.8,32.7,26.8,85,59,41,31.01,29.03,5,0,6,0.00
2012-2-21,64.0,49.6,38.3,44.0,38.3,34.5,87,68,39,31.01,29.15,4,0,5,0.00
2012-2-22,68.4,52.7,41.5,42.4,39.2,36.0,91,64,35,29.23,29.03,3,0,5,0.00
2012-2-23,70.3,53.0,37.8,40.8,31.5,22.7,81,49,22,29.03,28.91,5,0,8,0.00
2012-2-24,71.2,55.7,41.2,41.5,32.3,22.0,54,42,30,29.06,28.94,6,1,8,0.00
2012-2-25,61.3,46.6,33.6,42.3,28.1,17.5,85,52,25,29.23,29.06,6,1,8,0.00
2012-2-26,55.8,41.7,27.7,23.8,19.3,13.6,66,43,23,29.12,28.79,4,0,8,0.00
2012-2-27,53.4,42.0,32.5,34.0,27.0,21.3,79,57,37,28.88,28.76,6,1,8,0.00
2012-2-28,53.8,43.6,33.1,32.2,28.9,25.5,87,59,39,29.15,28.88,8,1,11,0.00
2012-2-29,47.8,44.1,41.2,43.2,38.2,26.6,95,81,45,29.15,29.00,10,2,17,0.59
2012-3-1,48.0,42.5,36.9,44.7,39.5,35.6,95,89,81,29.18,29.09,5,1,8,0.16
2012-3-2,58.8,42.9,29.8,45.3,32.6,28.1,98,72,35,29.29,29.15,4,0,6,0.00
2012-3-3,65.8,49.3,36.0,40.3,35.3,31.3,87,63,33,29.32,29.21,2,0,4,0.00
2012-3-4,71.2,54.7,42.1,41.4,38.2,35.0,80,58,30,31.01,29.03,0,0,4,0.00
2012-3-5,72.3,57.1,43.9,40.8,36.4,31.7,73,49,26,31.01,28.88,6,0,7,0.00
2012-3-6,56.1,46.1,30.9,40.4,25.1,11.9,81,46,26,29.00,28.82,6,1,13,0.00
2012-3-7,62.4,44.8,28.6,25.2,17.3,9.3,51,35,19,29.15,29.00,8,1,10,0.00
2012-3-8,66.9,49.2,35.1,30.0,25.1,21.1,58,41,23,29.29,29.15,4,0,6,0.00
2012-3-9,72.3,53.1,39.4,36.2,30.8,23.4,65,46,16,29.29,29.06,5,0,6,0.00
2012-3-10,65.1,51.9,40.5,42.4,33.2,25.4,80,52,23,29.06,28.91,6,1,9,0.00
2012-3-11,57.2,49.5,44.2,41.7,39.3,34.3,85,69,51,29.00,28.91,6,1,8,0.00
2012-3-12,57.4,49.2,39.2,36.6,32.2,27.6,71,53,39,29.00,28.85,5,0,8,0.00
2012-3-13,51.3,49.7,47.5,48.6,44.3,33.9,95,82,52,28.97,28.85,6,1,10,1.06
2012-3-14,54.5,52.2,50.2,53.4,51.1,48.8,97,96,93,29.09,28.94,4,0,8,2.32
2012-3-15,58.5,54.9,53.1,56.2,53.7,52.0,98,96,90,29.12,29.00,5,0,6,0.24
2012-3-16,53.8,52.0,45.0,53.0,51.4,44.4,98,98,96,29.00,28.64,8,1,8,2.99
2012-3-17,48.6,42.0,36.1,45.9,39.0,35.1,98,89,72,28.67,28.44,3,0,6,0.24
2012-3-18,49.3,40.8,35.8,40.4,35.1,31.8,96,81,53,31.01,28.53,9,1,11,0.31
2012-3-19,48.7,39.4,32.9,42.5,33.5,30.5,97,82,50,31.01,28.97,3,0,4,0.00
2012-3-20,59.0,54.4,47.1,41.5,35.1,29.2,74,50,35,29.15,29.09,3,0,4,0.00
2012-3-21,68.4,56.6,45.1,48.3,43.4,39.9,90,64,39,29.12,28.91,4,0,6,0.00
2012-3-22,59.9,54.1,45.5,48.5,43.1,26.4,82,67,41,28.94,28.85,5,0,8,0.00
2012-3-23,60.4,48.2,34.3,33.9,29.4,25.2,82,51,28,29.03,28.85,8,1,8,0.00
2012-3-24,53.6,48.9,43.5,39.6,36.6,33.1,77,63,49,28.85,28.76,4,0,5,0.00
2012-3-25,52.5,44.9,39.0,42.1,38.7,35.1,93,79,58,28.82,28.70,4,0,5,0.39
2012-3-26,55.9,47.7,38.8,42.0,36.3,29.7,96,67,42,29.06,28.79,5,1,6,0.00
2012-3-27,57.6,49.2,42.8,45.6,40.7,35.7,93,74,45,29.00,28.88,6,1,10,0.79
2012-3-28,62.4,52.2,47.3,52.7,44.9,38.9,96,78,44,29.09,28.91,5,1,5,0.43
2012-3-29,61.9,52.2,43.0,50.8,43.8,36.9,96,76,42,29.09,29.00,4,0,6,0.00
2012-3-30,66.4,55.2,49.8,57.2,49.3,42.0,98,83,42,29.09,28.88,8,0,8,0.04
2012-3-31,58.1,49.8,43.2,48.8,43.3,39.4,93,79,50,28.88,17.72,6,1,12,1.14
2012-4-1,58.1,47.3,39.2,48.5,37.5,27.6,97,73,34,29.21,17.72,5,0,8,0.04
2012-4-2,63.5,48.7,35.2,41.4,35.7,32.3,92,65,34,29.18,29.00,5,0,5,0.00
2012-4-3,66.6,54.5,44.4,48.1,40.2,35.4,90,63,34,29.03,28.91,6,1,7,0.24
2012-4-4,57.6,46.0,35.4,48.2,34.7,25.6,97,70,31,29.12,28.97,4,0,8,0.20
2012-4-5,55.6,42.4,32.5,38.6,28.4,21.8,92,62,29,29.09,29.00,4,0,6,0.00
2012-4-6,59.4,44.3,32.2,31.4,27.4,24.1,78,55,30,29.21,29.09,5,0,6,0.00
2012-4-7,67.5,51.1,36.3,37.4,30.8,25.9,74,50,23,29.12,29.00,5,0,6,0.00
2012-4-8,72.5,56.0,41.4,41.5,33.3,24.3,72,45,23,29.03,28.94,5,0,6,0.00
2012-4-9,69.4,56.4,45.0,41.5,35.2,31.2,72,48,26,28.97,28.79,4,0,6,0.00
2012-4-10,59.4,51.1,42.8,46.1,38.6,32.6,85,63,48,28.85,28.76,4,0,6,0.00
2012-4-11,53.1,48.6,46.2,50.9,44.7,39.3,96,87,67,28.94,28.76,6,1,10,0.55
2012-4-12,52.5,46.9,43.0,45.6,42.5,37.6,96,85,67,29.00,28.79,8,1,10,1.57
2012-4-13,51.1,45.0,41.0,45.2,41.2,37.1,96,87,63,28.79,28.64,5,1,9,1.61
2012-4-14,60.4,48.3,39.0,47.0,41.5,38.2,98,80,46,29.06,17.72,5,0,6,0.00
2012-4-15,67.8,53.2,41.0,47.2,42.2,37.7,97,71,34,29.15,17.72,4,0,6,0.00
2012-4-16,70.3,57.0,45.0,42.7,37.7,30.8,84,53,25,29.15,29.09,6,1,8,0.00
2012-4-17,70.3,58.3,45.7,46.0,40.8,36.4,81,55,33,29.12,29.00,6,0,6,0.00
2012-4-18,68.0,58.5,45.9,44.7,40.5,32.8,82,53,34,29.09,29.00,4,0,5,0.00
2012-4-19,76.6,62.4,48.9,53.0,47.3,42.4,83,60,38,29.09,29.00,5,0,6,0.00
2012-4-20,82.0,67.1,55.0,58.6,53.5,49.8,89,65,34,29.03,28.94,4,0,5,0.00
2012-4-21,84.7,69.0,57.2,56.2,53.2,48.3,86,61,31,28.94,28.82,3,0,5,0.00
2012-4-22,86.9,70.9,58.3,57.5,53.6,46.8,81,58,31,28.88,28.79,3,0,4,0.00
2012-4-23,70.7,63.1,55.6,55.6,48.9,44.3,82,61,44,28.97,28.79,5,1,8,0.00
2012-4-24,71.8,62.0,55.9,52.0,48.1,44.8,80,62,42,29.00,28.88,5,1,5,0.00
2012-4-25,64.0,59.0,54.7,58.8,54.6,49.4,95,85,70,28.97,28.73,3,0,4,0.35
2012-4-26,62.2,54.9,44.6,56.0,47.8,37.7,98,80,44,29.12,28.70,6,1,9,0.31
2012-4-27,66.6,52.6,40.3,50.0,40.4,35.9,96,68,33,29.15,29.06,5,0,7,0.00
2012-4-28,74.8,59.0,46.2,50.8,44.7,41.7,92,63,33,29.06,28.82,5,0,5,0.00
2012-4-29,78.4,62.6,46.6,51.6,47.6,42.3,89,62,32,28.88,28.82,4,0,5,0.00
2012-4-30,79.9,66.7,54.7,51.6,48.0,43.6,82,54,30,28.91,28.79,6,1,9,0.00
2012-5-1,72.5,59.9,48.7,51.0,44.7,38.5,92,60,32,28.85,28.79,8,0,8,0.00
2012-5-2,68.5,56.5,44.2,48.2,41.8,32.7,93,61,38,28.88,28.79,5,1,7,0.00
2012-5-3,59.0,54.5,49.3,50.6,41.7,31.0,86,62,45,29.03,28.88,5,1,8,0.00
2012-5-4,65.1,56.2,48.4,50.8,43.3,36.3,91,65,36,29.12,29.03,5,1,7,0.00
2012-5-5,72.7,56.5,39.7,45.7,37.9,32.5,87,54,26,29.12,28.97,5,0,6,0.00
2012-5-6,80.4,60.8,40.1,43.3,36.3,28.4,70,43,21,29.00,28.94,5,0,5,0.00
2012-5-7,83.7,66.1,45.0,42.4,36.1,27.1,55,35,19,28.97,28.88,4,0,6,0.00
2012-5-8,86.5,67.9,51.1,44.0,35.1,27.6,54,32,13,28.94,28.85,6,0,8,0.00
2012-5-9,86.5,69.9,57.4,45.4,39.1,34.9,55,35,19,28.91,28.82,5,0,5,0.00
2012-5-10,80.1,63.9,49.3,50.8,42.0,36.0,80,48,23,28.85,28.79,3,0,4,0.00
2012-5-11,84.0,66.4,50.7,46.4,40.1,36.1,62,41,20,28.91,28.82,3,0,4,0.00
2012-5-12,85.8,69.1,56.3,47.4,42.7,37.7,59,40,22,29.00,28.91,3,0,5,0.00
2012-5-13,83.3,67.7,57.0,48.2,43.4,39.1,59,43,26,29.00,28.88,6,1,7,0.00
2012-5-14,70.9,59.4,50.5,45.8,42.4,38.6,75,55,34,29.06,28.94,5,1,8,0.00
2012-5-15,77.4,63.2,50.5,51.6,46.7,43.7,84,59,31,29.00,28.88,3,0,5,0.00
2012-5-16,83.1,68.1,54.9,55.5,50.7,47.1,85,58,30,28.97,28.85,4,0,6,0.00
2012-5-17,74.1,65.2,55.9,51.4,41.7,35.6,74,43,31,28.85,28.73,6,1,8,0.00
2012-5-18,78.4,62.4,47.5,53.5,41.7,34.6,91,52,21,28.88,28.82,3,0,6,0.00
2012-5-19,81.9,65.5,51.6,46.3,40.1,33.4,69,43,21,28.94,28.85,3,0,4,0.00
2012-5-20,87.4,69.7,55.9,48.5,42.7,35.4,60,40,21,28.94,28.85,3,0,6,0.00
2012-5-21,79.9,68.3,57.0,48.5,45.5,41.7,69,46,28,29.00,28.88,5,1,8,0.00
2012-5-22,78.6,65.6,52.9,50.9,45.8,40.9,81,52,28,29.03,28.94,5,0,6,0.00
2012-5-23,76.6,61.5,47.5,51.4,39.7,32.5,89,50,21,28.94,28.82,4,0,6,0.00
2012-5-24,75.2,60.9,47.1,44.4,36.5,26.5,73,44,21,28.82,28.59,3,0,5,0.00
2012-5-25,63.9,53.4,40.6,37.0,32.3,27.1,70,45,33,28.76,28.61,6,1,6,0.00
2012-5-26,68.5,55.0,43.7,49.1,41.8,37.0,89,64,34,29.00,28.76,6,1,8,0.12
2012-5-27,72.1,56.8,42.4,54.9,44.9,40.8,96,69,34,29.09,29.00,4,0,4,0.04
2012-5-28,73.8,60.4,48.7,48.2,43.1,35.5,84,58,25,29.00,28.94,6,1,6,0.00
2012-5-29,77.7,61.8,46.9,49.5,44.1,41.0,85,56,30,29.00,28.94,4,0,5,0.00
2012-5-30,84.7,67.1,53.2,51.7,45.5,37.5,79,51,22,29.03,28.94,3,0,5,0.00
2012-5-31,89.6,73.0,58.8,53.7,48.8,44.4,66,45,24,28.97,28.82,3,0,4,0.00
2012-6-1,93.6,76.9,63.3,57.5,53.3,47.9,70,48,24,28.82,28.67,5,0,5,0.00
2012-6-2,86.5,73.7,61.7,53.5,49.4,43.3,70,44,29,28.85,28.70,5,1,8,0.00
2012-6-3,86.9,72.0,57.6,55.3,45.8,42.5,80,43,22,28.88,28.76,5,0,5,0.00
2012-6-4,63.1,59.0,53.4,55.2,47.4,42.2,92,67,47,29.00,28.82,6,1,8,0.12
2012-6-5,66.4,54.9,47.1,43.1,38.8,33.9,84,57,33,29.12,29.00,5,1,8,0.00
2012-6-6,57.6,46.7,44.2,44.3,40.2,38.0,84,78,57,29.03,28.97,0,0,3,0.00
2012-6-7,81.3,71.3,52.2,47.6,43.5,38.7,76,40,23,28.94,28.85,5,0,6,0.00
2012-6-8,78.6,63.9,53.2,52.2,43.7,32.5,80,52,22,28.91,28.79,4,0,6,0.00
2012-6-9,79.5,62.5,44.8,45.9,34.5,20.9,84,41,13,28.91,28.79,6,1,6,0.00
2012-6-10,86.5,67.1,48.0,39.9,32.0,19.3,44,28,18,28.88,28.82,6,0,6,0.00
2012-6-11,91.4,72.7,56.1,45.1,38.7,32.2,47,32,15,28.91,28.85,4,0,4,0.00
2012-6-12,92.1,74.7,58.8,48.5,42.5,35.6,59,34,17,28.91,28.79,4,0,6,0.00
2012-6-13,89.2,72.3,55.8,52.4,48.2,43.4,72,45,25,28.82,28.67,3,0,4,0.00
2012-6-14,90.5,74.5,61.7,56.1,49.3,38.5,71,45,20,28.73,28.64,5,0,6,0.00
2012-6-15,93.0,74.2,57.6,55.0,48.2,42.3,78,45,18,28.76,28.67,4,0,5,0.00
2012-6-16,101.7,81.2,63.1,53.3,47.0,38.8,58,35,12,28.82,28.76,4,0,4,0.00
2012-6-17,98.1,82.2,67.8,51.3,47.2,41.3,49,32,17,28.82,28.73,6,1,9,0.00
2012-6-18,87.4,73.6,58.3,50.1,41.7,35.8,56,34,19,28.82,28.73,5,1,8,0.00
2012-6-19,87.1,68.6,50.5,44.9,38.0,29.8,57,35,19,28.85,28.76,4,0,5,0.00
2012-6-20,92.8,74.2,59.4,46.3,37.4,22.0,49,30,10,28.79,28.73,6,0,6,0.00
2012-6-21,79.9,68.2,56.3,45.5,41.0,36.4,60,38,26,28.85,28.73,6,1,8,0.00
2012-6-22,68.9,60.1,49.6,48.7,43.3,39.2,73,55,39,28.88,28.79,6,1,9,0.00
2012-6-23,72.5,61.8,52.5,48.9,39.5,31.0,77,48,23,28.88,28.79,6,1,8,0.00
2012-6-24,73.9,60.6,46.6,42.9,36.3,27.1,79,45,23,28.97,28.85,4,1,6,0.00
2012-6-25,73.4,61.3,48.6,42.0,36.5,31.1,64,41,25,29.03,28.91,5,1,10,0.00
2012-6-26,77.7,66.4,53.6,44.9,39.7,33.4,61,39,24,29.00,28.82,4,0,6,0.00
2012-6-27,84.9,67.4,51.6,46.8,38.5,31.7,70,39,18,28.88,28.82,4,0,6,0.00
2012-6-28,87.8,71.4,55.2,44.6,38.8,32.9,56,33,18,29.00,28.88,5,0,6,0.00
2012-6-29,84.6,69.4,53.1,49.6,43.4,36.6,64,41,23,29.03,28.91,4,0,5,0.00
2012-6-30,85.6,71.3,54.7,55.3,49.4,45.6,75,49,29,28.94,28.85,4,0,5,0.00
2012-7-1,83.1,67.4,61.3,57.4,54.5,48.6,83,67,31,28.88,28.82,4,0,6,0.00
2012-7-2,89.6,80.9,63.7,58.1,52.0,47.9,81,39,27,28.82,28.76,4,0,6,0.00
2012-7-3,88.9,72.8,56.5,54.0,47.5,40.5,72,44,19,28.85,28.73,3,0,6,0.00
2012-7-4,91.8,75.6,61.0,52.3,45.2,38.0,65,38,17,28.79,28.73,3,0,6,0.00
2012-7-5,86.5,71.9,57.9,47.8,42.4,35.6,64,37,19,28.88,28.79,5,0,8,0.00
2012-7-6,89.8,71.4,55.8,51.9,43.4,35.6,69,40,18,28.94,28.88,4,0,5,0.00
2012-7-7,95.5,77.4,63.0,50.8,42.5,36.3,48,32,14,28.94,28.85,4,0,6,0.00
2012-7-8,97.7,79.2,65.5,51.4,41.9,30.9,45,30,11,28.94,28.85,5,0,6,0.00
2012-7-9,94.3,77.3,63.5,49.2,41.8,34.6,47,31,14,28.94,28.88,3,0,6,0.00
2012-7-10,98.2,78.2,62.8,48.7,38.8,20.3,46,28,8,28.88,28.76,4,0,6,0.00
2012-7-11,102.7,79.8,64.4,47.9,35.0,16.2,40,25,5,28.85,28.76,4,0,5,0.00
2012-7-12,103.3,83.3,66.9,50.1,38.5,25.7,39,23,7,28.79,28.73,4,0,5,0.00
2012-7-13,92.5,77.1,64.0,47.9,43.1,36.3,48,32,15,28.82,28.73,5,1,8,0.00
2012-7-14,88.2,70.3,53.2,50.2,44.8,38.9,75,44,19,28.88,28.79,4,0,6,0.00
2012-7-15,93.0,75.3,58.1,50.5,44.9,39.4,60,37,18,28.85,28.73,4,0,6,0.00
2012-7-16,79.5,68.4,56.1,50.6,44.8,41.1,68,44,30,28.85,28.73,6,1,8,0.00
2012-7-17,73.6,62.2,54.0,47.8,45.4,41.9,78,57,35,28.94,28.82,6,1,8,0.00
2012-7-18,83.5,67.0,52.2,52.4,46.9,43.2,83,53,28,28.94,28.88,4,0,6,0.00
2012-7-19,85.3,70.7,59.0,53.2,47.0,39.3,70,45,27,28.97,28.91,4,0,7,0.00
2012-7-20,91.6,72.8,57.7,55.6,44.6,33.0,74,41,18,29.03,28.91,4,0,6,0.00
2012-7-21,98.8,80.1,62.8,49.4,41.7,25.9,49,30,8,28.94,28.82,3,0,4,0.00
2012-7-22,100.0,82.2,67.3,49.0,44.1,40.3,45,28,16,28.85,28.76,3,0,4,0.00
2012-7-23,93.2,80.3,66.0,61.8,47.0,35.1,72,34,18,28.85,28.79,7,1,7,0.00
2012-7-24,90.3,74.4,60.1,51.6,41.8,35.3,63,34,18,28.91,28.82,4,0,5,0.00
2012-7-25,91.8,71.3,58.1,48.4,42.1,37.0,61,38,17,28.91,28.82,4,0,6,0.00
2012-7-26,89.8,72.4,56.3,47.0,42.6,37.5,63,37,19,28.88,28.82,4,0,5,0.00
2012-7-27,88.0,71.8,57.9,49.2,43.4,37.6,65,39,19,28.94,28.85,4,0,6,0.00
2012-7-28,89.8,72.7,57.7,48.8,43.0,35.2,63,37,18,28.97,28.91,3,0,5,0.00
2012-7-29,91.2,73.5,59.5,50.2,42.8,37.7,59,36,18,28.97,28.88,3,0,6,0.00
2012-7-30,95.7,76.6,61.0,47.5,42.4,38.1,47,32,14,28.94,28.82,3,0,8,0.00
2012-7-31,98.1,79.8,66.2,45.3,39.8,26.4,42,27,8,28.94,28.85,4,0,6,0.00
2012-8-1,98.4,78.6,63.5,44.6,37.0,25.4,42,26,8,29.00,28.88,4,0,6,0.00
2012-8-2,98.6,79.5,63.1,43.5,38.2,32.2,37,25,11,28.94,28.82,4,0,4,0.00
2012-8-3,96.8,78.7,65.1,46.6,42.2,37.0,42,29,16,28.82,28.70,3,0,4,0.00
2012-8-4,89.1,74.4,62.4,52.1,45.1,39.7,56,36,22,28.91,28.73,7,0,10,0.00
2012-8-5,91.6,74.4,59.4,57.2,50.2,44.8,76,46,22,29.00,28.88,4,0,4,0.00
2012-8-6,93.6,75.5,60.6,50.2,40.5,24.7,63,34,9,29.03,28.94,4,0,4,0.00
2012-8-7,96.4,77.4,62.6,46.2,36.0,24.7,36,25,9,28.97,28.88,4,0,4,0.00
2012-8-8,97.0,78.0,61.9,47.6,39.6,32.9,40,27,11,28.94,28.85,4,0,5,0.00
2012-8-9,100.8,80.7,66.4,49.8,39.0,24.9,44,26,8,28.88,28.76,3,0,4,0.00
2012-8-10,102.9,82.8,67.8,46.3,36.0,25.3,34,22,7,28.79,28.67,4,0,4,0.00
2012-8-11,105.3,80.4,67.8,45.9,36.7,25.2,33,24,7,28.73,28.67,3,0,5,0.00
2012-8-12,103.1,85.0,71.2,49.3,36.7,16.5,35,22,5,28.79,28.70,3,0,5,0.00
2012-8-13,102.9,86.0,73.4,47.0,39.5,25.6,36,22,7,28.79,28.67,4,0,6,0.00
2012-8-14,100.4,86.8,72.5,52.1,43.7,28.1,44,24,13,28.73,28.67,4,0,6,0.00
2012-8-15,98.6,83.8,70.2,47.9,40.3,23.1,36,23,11,28.79,28.67,4,0,5,0.00
2012-8-16,95.2,80.8,68.9,48.2,45.3,39.7,44,30,18,28.85,28.76,4,0,6,0.00
2012-8-17,97.5,84.8,67.8,52.7,42.3,26.0,54,26,8,28.91,0.00,3,0,6,0.00
2012-8-18,98.1,81.0,66.9,54.4,41.4,26.1,64,28,8,28.91,28.79,5,0,6,0.00
2012-8-19,94.6,77.9,64.8,48.2,41.0,26.0,45,29,9,28.88,28.79,3,0,6,0.00
2012-8-20,96.6,77.3,62.2,47.1,41.1,37.3,44,29,16,28.85,28.76,4,0,5,0.00
2012-8-21,94.3,76.7,61.2,43.8,39.7,35.7,46,29,14,28.85,28.76,4,0,6,0.00
2012-8-22,93.4,75.6,59.5,45.7,40.4,34.5,46,30,17,28.85,28.79,4,0,4,0.00
2012-8-23,92.8,75.8,61.9,46.7,39.7,30.3,47,30,12,28.88,28.79,5,0,5,0.00
2012-8-25,90.5,79.2,65.1,42.1,37.2,31.6,39,23,15,28.79,28.70,3,0,5,0.00
2012-8-26,80.4,67.6,56.3,44.3,39.0,31.0,61,37,22,28.91,28.73,6,1,8,0.00
2012-8-27,88.3,68.9,53.2,45.4,39.5,34.5,58,38,19,29.00,28.91,4,0,6,0.00
2012-8-28,93.0,73.4,57.9,40.6,35.2,30.5,43,28,12,28.97,28.88,3,0,6,0.00
2012-8-29,94.3,73.5,57.9,39.9,30.7,16.6,42,24,6,28.91,28.76,3,0,4,0.00
2012-8-30,95.9,76.6,62.8,39.9,30.4,17.5,31,21,6,28.79,28.70,4,0,5,0.00
2012-8-31,79.3,65.9,54.1,45.7,41.5,31.9,64,42,28,28.88,28.76,5,1,6,0.00
2012-9-1,80.4,62.8,46.9,52.5,43.5,37.6,88,54,24,28.97,28.88,4,0,5,0.00
2012-9-2,89.1,70.0,54.5,42.4,38.5,32.2,57,35,16,28.94,28.85,4,0,5,0.00
2012-9-3,93.9,74.5,60.4,41.7,36.0,25.4,41,28,9,28.94,28.85,3,0,6,0.00
2012-9-4,94.1,74.8,61.0,41.5,35.1,28.6,36,26,11,28.94,28.88,3,0,5,0.00
2012-9-5,86.7,74.2,62.4,47.7,40.5,35.2,42,30,20,28.94,28.85,4,0,6,0.00
2012-9-6,88.3,74.7,60.3,51.4,42.1,33.1,54,33,18,28.94,28.85,4,0,6,0.00
2012-9-7,88.5,68.1,59.2,47.0,41.4,35.9,53,40,19,29.00,28.91,4,0,5,0.00
2012-9-8,93.2,76.9,65.5,48.1,43.4,38.3,49,33,17,28.97,28.85,4,0,6,0.00
2012-9-9,91.6,74.4,60.3,48.9,37.2,17.5,59,32,7,28.91,28.79,4,0,5,0.00
2012-9-10,89.4,69.4,52.9,44.3,36.9,31.1,58,33,13,28.88,28.73,4,0,5,0.00
2012-9-11,90.3,72.5,57.6,44.6,39.7,34.7,53,33,18,28.88,28.76,4,0,5,0.00
2012-9-12,90.5,73.6,61.0,45.0,41.1,38.8,45,33,18,29.00,28.88,4,0,5,0.00
2012-9-13,95.4,76.9,62.2,48.4,41.3,34.6,46,30,16,29.03,28.97,4,0,6,0.00
2012-9-14,95.7,77.7,64.8,49.3,42.0,37.2,43,30,16,29.03,28.94,4,0,5,0.00
2012-9-15,94.3,76.3,63.1,43.3,38.0,30.3,40,27,11,29.03,28.94,4,0,6,0.00
2012-9-16,93.9,75.4,62.2,41.0,32.2,23.4,32,23,9,28.97,28.91,4,0,5,0.00
2012-9-17,88.3,72.3,61.5,42.3,34.8,29.6,40,26,13,28.97,28.88,4,0,4,0.00
2012-9-18,86.4,68.6,58.1,43.6,39.2,34.4,51,35,20,29.00,28.91,3,0,5,0.00
2012-9-19,87.3,69.4,58.3,44.6,39.1,33.2,51,35,19,29.03,28.94,4,0,4,0.00
2012-9-20,87.6,70.0,57.0,44.3,39.7,35.8,48,35,19,29.00,28.91,4,0,4,0.00
2012-9-21,82.0,65.6,60.1,45.2,40.3,36.8,47,40,26,28.94,28.91,0,0,3,0.00
2012-9-22,93.2,79.9,64.2,44.9,41.4,38.2,42,27,17,28.91,28.82,4,0,5,0.00
2012-9-23,87.6,68.9,60.3,44.4,39.1,33.5,41,34,18,28.91,28.85,3,0,5,0.00
2012-9-24,86.5,68.6,54.0,40.7,35.2,29.9,51,32,16,28.91,28.82,3,0,6,0.00
2012-9-25,87.8,70.6,57.0,40.0,36.2,31.0,40,30,18,28.85,28.76,3,0,6,0.00
2012-9-26,87.4,71.6,59.4,43.5,40.1,37.6,46,34,19,28.85,28.79,4,0,4,0.00
2012-9-27,93.0,74.0,61.3,44.2,40.1,35.9,44,31,17,28.88,28.79,4,0,5,0.00
2012-9-28,91.6,75.0,63.3,44.6,38.1,31.3,48,28,15,28.88,28.79,3,0,4,0.00
2012-9-29,89.6,71.3,58.5,41.6,37.0,32.9,42,30,18,28.97,28.88,3,0,4,0.00
2012-9-30,70.0,67.9,66.6,41.0,39.8,38.3,39,36,33,28.97,28.94,0,0,0,0.00
2012-10-1,96.8,76.7,63.3,40.2,35.4,30.9,35,24,11,29.00,28.88,4,0,5,0.00
2012-10-2,96.4,77.7,65.5,39.4,33.4,24.8,33,22,9,28.88,28.76,3,0,5,0.00
2012-10-3,94.1,76.2,63.9,37.9,30.8,24.6,33,21,9,28.88,28.82,4,0,6,0.00
2012-10-4,78.6,66.7,56.8,45.5,39.3,31.5,56,38,26,29.03,28.88,6,1,8,0.00
2012-10-6,75.0,66.3,53.4,47.5,43.1,41.0,74,45,32,29.00,28.91,5,1,6,0.00
2012-10-7,78.1,62.1,50.9,47.1,43.8,42.1,74,54,30,28.94,28.88,3,0,5,0.00
2012-10-8,73.2,59.8,49.8,45.6,40.9,35.1,78,53,30,28.97,28.91,5,1,8,0.00
2012-10-9,73.6,59.2,47.3,44.8,40.1,36.5,76,52,29,28.97,28.88,4,0,6,0.00
2012-10-10,75.7,62.5,50.4,41.9,38.5,35.5,65,43,25,28.91,28.82,5,0,6,0.00
2012-10-11,63.9,56.8,48.7,45.8,41.2,37.1,71,56,44,28.94,28.79,6,0,8,0.00
2012-10-12,61.9,57.2,53.4,46.9,44.6,42.4,75,63,51,29.18,28.91,5,0,5,0.00
2012-10-13,71.2,57.5,46.8,48.9,42.7,40.3,86,61,34,29.23,29.12,4,0,5,0.00
2012-10-14,77.9,62.0,50.5,48.5,45.3,43.5,79,58,31,29.18,29.03,3,0,6,0.00
2012-10-15,81.7,65.4,54.0,48.2,45.5,42.7,71,52,29,29.03,28.91,3,0,6,0.00
2012-10-16,85.5,68.5,57.6,49.6,45.6,42.7,62,46,29,28.94,28.85,4,0,6,0.00
2012-10-17,81.0,63.6,48.6,45.8,40.7,33.7,76,47,22,28.88,28.82,4,0,6,0.00
2012-10-18,88.5,69.5,57.9,42.9,38.5,31.1,52,34,20,29.00,28.88,6,0,6,0.00
2012-10-19,79.2,64.7,55.8,52.5,43.9,38.7,65,48,30,29.00,28.85,4,0,6,0.00
2012-10-20,71.2,57.4,49.8,45.6,42.9,40.2,72,59,39,28.85,28.79,4,0,6,0.00